Zurück zum Katalog

STARLINK-30772

AktivKommunikationVLEO
NORAD 58135·PAYLOAD·🇺🇸 United States

Gestartet Oct 22, 2023 von Cape Canaveral Space Force Station

Loading…

Nächste Überflüge (nächste 24 Stunden)

TLE

AktuellSource: CelesTrak SupGP

Epoche: Sep 15, 2026, 02:58 UTC

1 58135C 23162T   26258.12409722  .00078234  00000+0  28330-2 0  2585
2 58135  43.0009 142.5818 0001602 275.8588 296.6143 15.27546501    19

Verfolge STARLINK-30772 in Echtzeit mit AllMySat

Download on the App Store